Temperature
14 14 14 14 14 14 14 14 14 14 14 15 15 15 15 15 15 15 15 15 15 15 15 15 15 15 15 15 15 15 15 15 15 15 15 15 15 15 14 14 14 15 15
14 14 14 14 14 14 14 14 14 14 14 14 14 14 15 14 14 15 15 15 15 15 14 15 15 15 15 15 15 15 15 15 15 14 14 14 14 14 14 14 14 14 14
14 14 14 14 14 14 14 14 14 14 14 14 14 14 14 14 14 14 14 14 14 14 14 14 15 15 15 15 15 15 14 14 14 14 14 14 14 14 14 14 14 14 14
13 13 13 13 14 14 14 14 14 14 14 14 14 14 14 14 14 14 14 14 14 14 14 14 14 14 14 14 14 14 14 14 14 14 13 14 14 14 14 14 14 14 14
13 13 13 13 13 13 13 13 14 14 14 14 14 14 14 14 14 14 14 14 14 14 14 14 14 14 14 14 14 14 14 14 14 13 13 13 14 14 14 14 14 14 14
13 13 13 13 13 13 13 13 13 13 13 14 14 14 14 14 14 14 14 14 14 14 14 14 14 14 14 14 14 14 14 14 13 13 13 13 13 14 14 14 14 14 14
12 12 13 13 13 13 13 13 13 13 13 13 13 13 13 13 13 14 14 14 14 14 14 14 14 14 14 14 14 14 14 13 13 13 13 13 13 14 14 14 14 14 14
12 12 12 12 13 13 13 13 13 13 13 13 13 13 13 13 13 13 13 13 13 13 13 13 13 13 13 14 14 13 13 13 13 13 13 13 13 13 13 14 14 13 13
12 12 12 12 12 12 12 12 12 13 13 13 13 13 13 13 13 13 13 13 13 13 13 13 13 13 13 13 13 13 13 13 13 13 13 13 13 13 13 13 13 13 13
11 12 12 12 12 12 12 12 12 12 12 12 12 13 13 13 13 13 13 13 13 13 13 13 13 13 13 13 13 13 13 13 13 13 13 13 13 13 13 13 13 13 13
11 11 11 12 12 12 12 11 12 12 12 12 12 12 12 12 12 12 12 12 12 12 12 12 12 12 12 12 12 12 12 12 12 12 12 12 12 12 13 13 13 13 13
11 11 11 11 11 11 11 11 11 11 11 11 11 11 11 11 12 12 12 12 12 12 12 12 12 12 12 12 12 12 12 12 12 12 12 12 12 12 12 12 12 12 12
11 11 11 11 11 11 11 11 11 11 11 11 11 11 11 11 11 11 11 11 11 11 12 12 12 12 12 12 12 12 12 11 11 12 12 12 12 12 12 12 12 12 12
11 11 11 11 11 11 11 11 11 11 11 11 11 11 11 11 11 11 11 11 11 11 11 11 11 11 11 11 11 11 11 11 11 11 11 11 11 11 11 11 11 11 11
11 11 10 10 10 10 10 10 10 10 10 10 10 10 10 11 10 11 11 11 10 10 11 11 11 11 11 11 11 11 11 11 11 11 11 11 11 11 11 11 11 11 11
10 10 10 10 10 10 10 10 10 10 10 10 10 10 10 10 10 10 10 10 10 10 10 10 10 10 10 10 10 11 10 10 10 10 10 10 10 10 10 10 10 10 10
10 10 10 10 10 10 10 10 10 10 10 9 10 10 10 10 10 10 10 10 10 10 10 10 10 10 10 10 10 10 10 10 10 10 10 10 10 10 10 10 10 10 10
10 10 10 10 10 10 9 9 9 9 9 9 9 9 9 9 9 9 9 9 9 9 9 9 9 10 10 9 10 10 10 10 10 10 9 9 10 10 10 10 10 10 10
10 10 10 9 9 9 9 9 9 9 9 9 9 9 9 9 9 9 9 9 9 9 9 9 9 9 9 9 9 9 9 9 9 9 9 9 9 9 9 9 9 9 9
10 9 9 9 9 9 9 9 9 9 9 8 8 8 8 9 9 9 8 9 9 9 9 9 9 9 9 9 9 9 9 9 9 9 9 9 9 9 9 9 9 9 9
9 9 9 9 9 9 8 8 8 8 8 8 8 8 8 8 8 8 8 8 8 8 8 8 8 8 8 8 8 8 8 8 8 8 8 8 8 8 8 8 8 8 8
9 9 9 9 8 8 8 8 8 8 8 8 8 8 8 8 8 8 8 8 8 8 8 8 8 8 8 8 8 8 7 7 7 8 8 8 8 8 8 8 8 8 8
9 9 8 8 8 8 8 8 8 8 7 7 8 8 8 7 7 8 8 7 8 8 8 8 7 8 7 7 7 7 7 7 7 7 7 7 7 7 7 7 7 7 7
9 8 8 8 8 8 8 7 7 7 7 7 7 7 7 7 7 7 7 7 7 7 7 7 7 7 7 7 7 7 7 7 7 6 6 6 6 7 7 7 7 7 7
8 8 8 8 8 8 7 7 7 7 7 7 7 7 7 7 7 7 7 7 7 7 7 7 7 7 7 7 7 7 7 7 7 6 6 6 6 6 6 6 6 6 6
8 8 8 8 7 7 7 7 7 7 7 7 6 7 7 7 7 6 6 6 6 6 7 7 6 6 6 6 6 6 6 6 6 6 6 6 6 6 6 6 6 6 6
Wind_Speed
4 6 6 6 5 5 4 4 4 4 5 5 5 5 5 4 5 6 6 6 6 6 7 8 8 9 10 11 12 12 13 13 13 13 13 13 13 12 12 12 12 13 14
4 7 7 6 6 5 5 4 4 4 4 4 4 4 4 4 5 5 5 5 5 5 6 8 8 9 10 11 11 11 11 11 11 11 12 13 13 12 12 13 13 12 13
5 7 7 7 7 6 5 5 4 3 4 4 3 4 4 4 4 5 5 5 5 5 6 7 8 9 10 10 10 10 9 8 7 7 9 11 11 11 12 13 13 13 13
6 7 7 7 7 6 6 5 5 4 3 3 3 3 3 3 4 4 4 5 5 5 6 7 8 9 9 9 9 8 7 5 3 3 5 9 11 10 11 12 12 12 12
6 7 8 7 7 6 5 5 4 3 3 2 2 3 3 3 3 3 4 4 4 5 6 7 7 8 9 9 8 7 5 3 2 2 6 11 11 10 10 11 11 11 11
5 8 7 7 6 6 5 5 4 3 2 2 2 2 3 3 3 4 4 4 5 6 6 6 7 7 8 8 7 6 4 2 2 2 7 11 11 11 11 11 11 11 11
5 7 6 6 5 5 4 4 4 2 2 2 3 3 2 2 3 3 4 4 5 6 6 6 7 7 7 8 7 5 3 1 2 5 9 11 11 11 11 11 11 11 11
5 6 5 4 4 4 3 3 3 3 2 2 3 3 2 2 3 3 4 5 5 5 6 6 6 6 7 7 6 5 3 2 3 5 10 11 11 11 10 10 10 11 11
5 5 4 4 3 3 2 2 2 2 2 2 2 2 3 3 3 3 4 4 5 5 6 6 6 6 6 6 6 5 3 2 3 5 9 10 10 10 10 10 10 10 11
4 4 3 3 4 3 2 0 1 1 1 1 1 2 2 3 3 3 4 5 5 6 6 6 6 6 6 5 5 4 2 1 2 5 8 10 10 9 10 10 10 10 10
2 2 3 3 3 3 2 1 1 1 1 0 1 1 2 2 3 3 5 6 6 6 5 4 5 6 6 5 5 4 3 2 2 6 8 10 10 10 10 10 10 10 10
1 1 2 2 2 3 2 2 0 0 1 0 1 0 1 2 2 3 6 6 6 6 5 4 5 6 5 5 5 4 3 3 4 7 8 10 9 9 9 9 9 9 9
0 1 1 2 2 2 2 1 1 1 1 1 1 1 1 2 2 3 4 5 5 5 4 4 4 5 4 4 4 3 2 2 5 7 8 9 9 8 8 8 8 8 7
0 0 0 1 2 1 1 1 1 1 1 1 1 1 2 2 2 1 2 3 4 3 3 3 2 3 4 4 4 4 3 2 5 7 8 9 8 8 8 8 8 7 6
0 0 0 1 1 1 1 1 1 1 1 1 1 1 2 1 1 1 1 2 2 3 3 2 1 2 2 3 3 3 3 4 6 7 7 8 8 8 8 8 8 7 7
1 0 1 1 1 0 0 0 0 0 0 1 1 1 0 1 1 1 1 1 2 3 3 3 2 1 2 3 3 3 3 3 5 7 8 7 7 8 8 8 7 7 7
1 1 1 1 0 0 0 0 0 1 1 0 1 1 1 1 1 2 1 1 1 2 3 3 3 3 2 2 3 3 3 4 5 6 7 7 7 8 8 7 7 6 6
1 1 1 1 0 0 0 0 0 1 1 1 1 1 1 1 1 1 1 0 1 2 2 2 2 3 2 2 2 2 3 4 4 5 5 6 7 6 6 7 6 6 6
1 0 1 1 1 0 0 0 0 1 1 1 1 1 1 1 2 1 1 1 2 2 1 2 2 3 3 2 2 2 2 3 3 4 4 5 6 7 6 6 6 6 5
1 1 0 1 1 1 0 0 0 0 0 1 1 1 1 1 2 2 1 2 2 2 1 2 4 3 2 2 2 2 2 2 2 3 3 5 6 7 6 6 5 4 4
2 1 0 1 1 1 0 1 1 1 1 0 0 1 1 1 2 2 1 1 2 2 2 3 4 4 2 2 3 2 2 1 2 2 3 4 4 6 6 5 5 4 4
3 2 1 1 2 1 0 1 1 1 1 1 0 0 1 1 1 2 2 2 2 2 2 3 4 2 1 2 2 2 1 1 1 2 2 2 2 4 4 4 4 4 3
2 2 1 1 2 2 2 1 0 0 0 0 1 1 1 1 1 1 2 2 2 2 3 3 4 4 3 1 1 2 2 2 0 0 0 1 2 2 2 3 3 2 3
2 1 1 2 2 2 3 2 2 2 1 1 1 1 0 1 2 2 2 2 2 2 3 3 2 2 4 3 1 0 1 2 2 1 1 0 1 1 1 1 2 2 2
2 2 1 2 2 2 3 3 3 2 1 1 1 1 0 0 1 2 2 2 2 2 3 3 3 3 2 3 2 1 1 1 1 2 2 1 1 1 1 2 2 3 4
2 2 2 2 2 3 3 3 3 3 2 2 2 2 1 0 1 2 2 2 2 2 3 4 3 4 3 3 2 2 2 2 1 1 1 2 2 2 2 2 2 3 4
Wind_Direction
69 83 79 70 62 58 63 75 81 90 99 101 103 97 97 97 97 94 94 92 92 99 104 102 102 102 98 96 92 88 85 85 85 84 82 81 80 79 77 75 82 80 80
83 85 80 71 66 61 59 67 79 87 95 100 107 105 105 102 105 99 100 98 99 104 111 108 110 108 105 103 98 94 93 93 93 95 91 85 81 79 76 76 84 88 84
82 84 80 69 67 60 56 59 70 89 98 101 107 110 107 108 104 104 105 101 103 109 107 109 110 109 108 107 104 101 101 101 107 112 106 101 90 83 84 84 87 88 87
76 84 84 70 66 61 55 59 63 75 92 105 110 111 118 118 113 109 108 103 103 112 108 106 112 111 110 110 108 108 106 104 113 120 109 107 100 92 90 90 90 89 89
67 77 85 79 69 62 56 53 58 62 75 89 113 114 122 124 124 126 122 118 124 122 113 106 110 115 115 115 113 113 112 110 88 84 83 95 99 100 96 93 92 92 90
64 69 83 84 71 62 53 46 45 55 70 81 100 108 109 115 126 131 128 126 129 131 121 114 113 119 120 119 120 118 115 114 80 80 92 97 101 101 99 97 95 95 93
66 68 76 76 67 60 52 41 37 58 72 87 97 96 94 104 119 124 127 129 133 131 125 121 121 120 125 125 124 118 109 107 77 81 89 96 105 104 103 100 99 98 96
67 69 75 72 70 64 56 40 31 31 70 81 88 86 87 104 115 126 134 134 136 136 132 128 126 117 124 129 126 120 110 86 88 90 96 101 107 107 107 105 102 100 98
61 66 64 66 67 65 64 55 39 23 38 69 86 88 102 100 102 120 131 132 130 130 127 132 134 126 122 129 130 123 105 72 54 84 101 107 111 112 109 108 105 101 99
57 60 50 44 40 37 36 82 79 53 28 56 94 100 117 118 111 116 122 124 127 127 124 132 137 130 126 129 132 132 126 85 75 87 100 114 117 115 112 108 106 103 100
49 51 37 31 30 22 356 327 171 175 235 173 146 173 183 158 143 140 134 131 130 130 134 141 148 143 140 145 151 154 159 153 108 99 102 119 121 118 116 111 109 107 104
26 32 35 23 16 5 349 4 68 89 93 71 76 153 154 120 119 140 140 136 138 140 151 157 162 162 154 151 161 171 175 166 116 100 110 123 126 123 121 118 113 109 110
305 18 24 2 3 355 359 352 2 71 95 55 45 352 82 109 109 117 134 139 138 141 144 158 166 171 160 152 158 162 157 131 109 107 119 126 130 130 128 126 123 116 116
340 198 329 351 341 340 7 357 6 45 89 65 35 13 41 72 81 96 99 137 148 146 137 142 164 161 149 146 141 139 133 111 106 109 120 128 133 136 135 128 128 127 125
244 220 255 308 299 338 20 357 30 35 57 83 60 18 23 49 114 105 115 122 142 143 151 158 137 133 144 129 122 117 117 110 105 108 115 129 138 139 138 134 133 132 127
253 244 238 247 270 344 87 226 137 88 77 143 149 175 102 37 55 91 83 83 112 145 161 157 140 126 108 108 112 100 92 94 106 115 120 126 133 139 136 138 139 139 136
233 244 244 236 169 50 156 267 28 116 131 113 143 164 136 102 69 82 79 49 87 150 156 133 118 111 109 105 110 96 87 87 86 106 118 127 130 133 136 138 141 143 142
183 233 235 249 174 157 76 318 10 108 111 102 132 137 115 114 122 102 124 94 76 116 115 136 138 124 116 107 110 108 88 88 85 90 101 117 127 129 132 139 140 142 144
169 177 241 177 155 167 18 315 66 109 111 114 137 132 148 152 169 154 153 165 139 97 119 150 130 125 126 116 108 92 93 94 97 102 98 100 113 118 116 126 136 141 149
143 114 293 160 146 127 121 18 93 112 121 113 127 134 149 167 178 157 139 152 133 121 126 126 120 103 119 126 104 77 70 93 96 107 113 103 104 108 109 110 113 125 139
123 122 193 145 140 122 159 193 199 205 208 180 100 133 157 177 182 150 155 134 138 142 147 135 124 115 112 111 98 77 42 67 105 107 107 105 102 104 103 102 106 111 121
153 158 153 144 157 156 186 219 221 195 200 200 342 175 172 161 169 167 160 153 139 136 139 143 129 130 146 138 130 131 115 48 38 70 91 111 114 111 110 114 115 119 125
154 155 184 188 172 167 166 153 182 81 111 176 249 227 200 159 162 162 166 157 158 148 156 155 148 147 165 184 145 140 148 181 158 6 98 107 116 114 119 125 132 133 143
156 159 208 203 182 179 167 165 190 204 210 224 215 228 233 165 171 172 178 171 175 161 157 162 147 135 153 171 180 62 136 138 150 159 307 60 114 149 174 153 153 175 173
147 170 210 218 202 193 182 183 198 207 211 177 143 145 175 180 175 175 182 178 177 164 158 156 154 153 156 166 168 155 72 66 118 158 213 251 298 263 218 194 188 197 196
153 173 198 216 217 202 193 189 198 202 190 157 158 179 189 191 187 181 170 174 171 160 163 166 165 165 169 166 158 153 162 164 186 165 201 221 247 261 262 229 199 199 201
Height
1521 1520 1521 1521 1521 1521 1522 1522 1523 1524 1525 1525 1526 1527 1528 1528 1529 1530 1530 1531 1532 1533 1533 1534 1535 1535 1536 1537 1537 1538 1539 1539 1540 1541 1541 1542 1543 1543 1544 1544 1545 1546 1546
1520 1520 1520 1520 1521 1521 1522 1522 1523 1524 1524 1525 1526 1527 1528 1528 1529 1530 1531 1531 1532 1533 1534 1535 1535 1536 1537 1538 1538 1539 1540 1541 1541 1542 1543 1543 1544 1545 1545 1546 1546 1547 1548
1520 1520 1520 1520 1520 1521 1522 1522 1523 1523 1524 1525 1526 1527 1528 1528 1529 1530 1531 1532 1532 1533 1534 1535 1536 1537 1538 1539 1539 1540 1541 1542 1542 1543 1544 1544 1545 1546 1546 1547 1548 1548 1549
1520 1520 1520 1520 1520 1521 1521 1522 1523 1523 1524 1524 1525 1526 1527 1528 1529 1530 1531 1531 1532 1533 1534 1535 1536 1537 1538 1539 1540 1541 1542 1543 1544 1544 1545 1546 1546 1547 1547 1548 1549 1549 1550
1520 1519 1519 1520 1520 1520 1521 1521 1522 1523 1523 1524 1525 1526 1527 1528 1529 1529 1530 1531 1532 1533 1534 1535 1536 1537 1538 1539 1540 1541 1543 1544 1545 1545 1546 1546 1547 1547 1548 1549 1549 1550 1551
1519 1519 1519 1519 1519 1520 1520 1521 1521 1522 1523 1523 1524 1525 1526 1527 1528 1529 1530 1531 1532 1533 1534 1535 1536 1537 1538 1539 1541 1542 1543 1544 1545 1546 1547 1547 1548 1548 1549 1549 1550 1551 1551
1519 1518 1518 1519 1519 1519 1520 1520 1520 1521 1522 1522 1523 1524 1525 1526 1527 1528 1529 1530 1531 1532 1533 1535 1536 1537 1538 1539 1541 1542 1543 1544 1545 1546 1547 1547 1548 1549 1549 1550 1551 1551 1552
1518 1518 1518 1518 1518 1518 1519 1519 1519 1520 1521 1521 1522 1523 1523 1524 1525 1527 1528 1529 1530 1531 1533 1534 1536 1537 1538 1539 1541 1542 1543 1544 1545 1546 1547 1548 1548 1549 1549 1550 1551 1552 1552
1517 1517 1517 1517 1517 1517 1518 1518 1518 1519 1519 1520 1521 1522 1523 1523 1524 1526 1527 1528 1529 1531 1532 1533 1535 1536 1537 1539 1540 1542 1543 1544 1545 1546 1547 1548 1548 1549 1550 1551 1551 1552 1553
1516 1516 1516 1516 1516 1516 1516 1517 1517 1517 1518 1519 1520 1520 1521 1522 1523 1524 1525 1527 1528 1529 1531 1533 1534 1535 1536 1538 1540 1541 1543 1544 1545 1546 1547 1548 1548 1549 1550 1551 1551 1552 1553
1515 1514 1514 1514 1514 1514 1515 1515 1515 1516 1516 1517 1518 1519 1520 1521 1522 1523 1524 1525 1526 1528 1529 1531 1533 1534 1536 1537 1539 1541 1542 1543 1545 1545 1546 1547 1548 1549 1550 1551 1551 1552 1553
1513 1513 1513 1513 1513 1513 1513 1513 1514 1514 1515 1515 1516 1517 1518 1519 1520 1521 1522 1524 1525 1526 1528 1529 1531 1533 1534 1536 1538 1540 1541 1542 1544 1545 1546 1547 1548 1548 1549 1550 1551 1552 1553
1511 1511 1511 1511 1511 1511 1511 1511 1512 1512 1513 1514 1515 1516 1516 1517 1518 1519 1520 1522 1523 1525 1526 1528 1529 1531 1533 1535 1537 1539 1540 1541 1542 1543 1545 1546 1547 1548 1549 1549 1550 1551 1552
1510 1509 1509 1509 1509 1509 1509 1509 1510 1510 1511 1512 1513 1514 1514 1515 1516 1517 1519 1520 1522 1523 1524 1526 1527 1530 1532 1533 1535 1537 1539 1540 1541 1542 1543 1545 1546 1547 1548 1548 1549 1550 1551
1508 1507 1507 1507 1507 1507 1507 1508 1508 1509 1509 1510 1511 1512 1512 1513 1514 1515 1517 1518 1520 1521 1523 1524 1526 1527 1530 1532 1533 1535 1537 1539 1540 1541 1542 1543 1545 1546 1546 1547 1548 1549 1550
1506 1505 1505 1505 1505 1505 1505 1505 1506 1506 1507 1508 1509 1510 1511 1511 1512 1513 1514 1515 1517 1519 1521 1522 1523 1525 1527 1529 1531 1533 1535 1537 1538 1539 1540 1542 1543 1544 1545 1546 1547 1548 1549
1504 1503 1503 1503 1503 1503 1503 1503 1504 1504 1505 1506 1507 1507 1508 1509 1510 1511 1512 1513 1515 1517 1518 1520 1521 1523 1525 1527 1529 1531 1533 1535 1536 1537 1539 1540 1541 1543 1544 1545 1546 1547 1548
1501 1501 1501 1501 1500 1500 1501 1501 1502 1502 1503 1503 1504 1505 1505 1506 1508 1508 1510 1511 1513 1514 1516 1517 1519 1521 1523 1525 1527 1529 1531 1533 1535 1536 1537 1539 1540 1541 1542 1543 1544 1545 1546
1499 1498 1498 1498 1498 1498 1498 1499 1500 1500 1501 1501 1502 1503 1503 1504 1505 1506 1507 1508 1510 1512 1514 1515 1517 1518 1520 1522 1525 1527 1529 1530 1532 1534 1535 1537 1538 1539 1540 1541 1542 1543 1544
1496 1496 1496 1496 1496 1496 1496 1497 1497 1498 1499 1499 1500 1500 1501 1501 1502 1503 1504 1505 1507 1509 1511 1513 1514 1516 1518 1521 1523 1525 1527 1529 1530 1531 1533 1534 1536 1537 1538 1539 1540 1541 1542
1494 1494 1494 1494 1494 1494 1494 1494 1494 1495 1496 1497 1497 1498 1499 1499 1500 1501 1501 1503 1505 1506 1509 1511 1512 1514 1516 1518 1521 1523 1525 1527 1528 1529 1531 1532 1534 1535 1536 1537 1537 1538 1539
1491 1491 1491 1492 1492 1492 1492 1492 1493 1493 1494 1495 1495 1496 1496 1497 1497 1498 1499 1501 1502 1504 1506 1508 1509 1512 1514 1516 1518 1520 1523 1526 1526 1527 1529 1530 1531 1532 1533 1534 1535 1536 1536
1489 1489 1489 1489 1489 1490 1490 1491 1491 1491 1492 1492 1493 1493 1494 1494 1495 1496 1497 1498 1500 1502 1503 1505 1507 1509 1511 1513 1516 1519 1520 1521 1523 1525 1526 1528 1529 1530 1531 1531 1532 1533 1533
1486 1487 1487 1488 1487 1487 1488 1489 1489 1489 1489 1489 1490 1490 1491 1492 1493 1494 1495 1496 1497 1499 1501 1503 1505 1506 1508 1510 1513 1516 1518 1519 1520 1521 1523 1525 1526 1526 1527 1528 1529 1530 1530
1484 1484 1485 1485 1485 1485 1486 1486 1487 1487 1487 1488 1488 1488 1489 1490 1490 1491 1492 1493 1495 1496 1498 1500 1502 1504 1506 1508 1510 1513 1515 1517 1518 1519 1519 1521 1522 1523 1524 1525 1525 1526 1527
1481 1482 1482 1482 1482 1483 1483 1484 1484 1485 1485 1485 1485 1486 1486 1487 1488 1489 1490 1491 1492 1494 1495 1497 1499 1501 1503 1506 1508 1510 1512 1513 1515 1516 1516 1517 1518 1519 1520 1521 1522 1522 1523